Roanoke Regional Airport Airport (ROA)

 

Airport Diagram
Current Weather/Forecast (VFR Conditions)
METAR KROA 282254Z 05004KT 10SM SCT026 BKN040 OVC110 19/17 A3003 RMK AO2 RAE10B22E44 SLP161 P0000 T01940172
TAF KROA 281728Z 2818/2918 24005KT P6SM VCSH SCT025 OVC050 TEMPO 2821/2901 -SHRA OVC025 FM290400 VRB04KT 4SM -SHRA BR OVC005 FM291200 VRB03KT 2SM +RA OVC003 WS020/20035KT FM291600 05007KT 5SM -SHRA OVC006

All Charts
General
Chart Name Download
AIRPORT DIAGRAM
TAKEOFF MINIMUMS
ALTERNATE MINIMUMS
HOT SPOT

Departures
Chart Name Download
BUFIY THREE (RNAV)
DIXXY EIGHT
HOKEE THREE
MONAT THREE (RNAV)
SCUTA THREE (RNAV)

Approaches
Chart Name Download
ILS OR LOC RWY 34
RNAV (RNP) Z RWY 06
RNAV (RNP) Z RWY 24
RNAV (RNP) Z RWY 34
RNAV (GPS) Y RWY 06
RNAV (GPS) Y RWY 24
RNAV (GPS) Y RWY 34
LDA Y RWY 06
LDA Z RWY 06
VOR/DME-A


Inbound Traffic (Arrivals)

No inbound traffic.


Outbound Traffic (Departures)

No outbound traffic.